Location: Allos
(44.2333°N, 6.6333°E)
Time: 23:01:31
(UTC+00:00)

Cosmos 1821 Rocket - Pass Details

Date: 17 April 2021
Orbit: 946 x 1003 km, 82.9° (Epoch: 16 May)

Event Time Altitude Azimuth Distance (km) Brightness Sun altitude
Rises 01:19:08 0° 358° (N) 3,694 7.8 -30.2°
Reaches altitude 10° 01:21:52 10° 6° (N) 2,751 7.1 -30.0°
Maximum altitude 01:27:41 38° 74° (ENE) 1,479 5.2 -29.4°
Enters shadow 01:31:51 18° 132° (SE) 2,226 5.8 -29.0°
